Location: Caltech
(34.1382°N, 118.1253°W)
Time: 21:00:30
(UTC-07:00)

RS-15 - Visible Passes

Search period start: 30 September 2014 00:00
Search period end: 10 October 2014 00:00
Orbit: 1899 x 2145 km, 64.8° (Epoch: 29 September)

Date Brightness Start Highest point End Pass type
(mag) Time Alt. Az. Time Alt. Az. Time Alt. Az.
30 Sep 9.7 00:58:25 14° ENE 00:58:25 14° ENE 01:00:17 10° ENE visible
30 Sep 8.0 03:06:11 65° NNE 03:06:11 65° NNE 03:15:06 10° NNE visible
30 Sep 9.0 05:13:58 19° WNW 05:18:15 23° NW 05:26:28 10° NNE visible
01 Oct 8.4 02:31:42 50° NE 02:31:42 50° NE 02:39:02 10° NNE visible
01 Oct 8.7 04:39:28 28° WNW 04:41:31 30° NW 04:50:43 10° NNE visible
02 Oct 8.9 01:57:10 35° NE 01:57:10 35° NE 02:02:50 10° NE visible
02 Oct 8.4 04:04:57 38° NW 04:04:59 38° NW 04:14:56 10° NNE visible
02 Oct 9.5 06:18:11 10° NW 06:21:56 12° NNW 06:25:43 10° N visible
03 Oct 9.3 01:22:37 24° NE 01:22:37 24° NE 01:26:27 10° NE visible
03 Oct 8.3 03:30:23 46° NNW 03:30:23 46° NNW 03:39:06 10° NNE visible
03 Oct 9.4 05:39:15 10° NW 05:44:37 14° NNW 05:50:01 10° N visible
04 Oct 9.7 00:48:03 15° NE 00:48:03 15° NE 00:49:48 10° NE visible
04 Oct 8.4 02:55:49 46° N 02:55:49 46° N 03:03:13 10° NNE visible
04 Oct 9.2 05:03:35 15° NW 05:07:29 18° NNW 05:14:19 10° N visible
05 Oct 8.7 02:21:12 40° NNE 02:21:12 40° NNE 02:27:15 10° NNE visible
05 Oct 9.0 04:28:58 22° NW 04:30:32 22° NW 04:38:35 10° NNE visible
06 Oct 9.1 01:46:35 31° NE 01:46:35 31° NE 01:51:12 10° NNE visible
06 Oct 8.8 03:54:20 28° NW 03:54:20 28° NW 04:02:50 10° NNE visible
06 Oct 9.7 06:10:01 10° NNW 06:11:47 10° N 06:13:33 10° N visible
07 Oct 9.4 01:11:56 22° NE 01:11:56 22° NE 01:15:02 10° NE visible
07 Oct 8.8 03:19:41 33° NNW 03:19:41 33° NNW 03:27:03 10° NNE visible
07 Oct 9.5 05:30:48 10° NW 05:34:18 12° NNW 05:37:50 10° N visible
08 Oct 9.7 00:37:16 15° NE 00:37:16 15° NE 00:38:41 10° NE visible
08 Oct 8.8 02:45:01 34° N 02:45:01 34° N 02:51:14 10° NNE visible
08 Oct 9.4 04:52:47 11° NW 04:56:58 14° NNW 05:02:08 10° N visible
09 Oct 9.0 02:10:20 31° N 02:10:20 31° N 02:15:21 10° NNE visible
09 Oct 9.3 04:18:05 17° NW 04:19:48 17° NNW 04:26:26 10° N visible
